www.pogodaiklimat.ru

Погода и климат >> Архив погоды >> Малайзия >> Bintulu


ПОГОДА в Bintulu

  • Прогноз погоды в Bintulu
  • Монитор погоды в Bintulu
  • Климат города

АРХИВ ПОГОДЫ в Bintulu

Время (UTC), дата Ветер
(напр.,м/с)
 
Видим.   Явления Облачность Т
(С)
Тd
(С)
f
(%)
Тe
(С)
Тes
(С)
Комфортность P
(гПа)
Po
(гПа)
Тmin
(С)
Tmax
(С)
R
(мм)
R24
(мм)
S
(см)
18 4.12 Ю 2 10 км слабый дождь 9/4 480 м
[Sc As op]
+25.4 +25.1 98 +36 +36 очень
душно
1008.7 1006.0 1
21 4.12 В 2 6000 м ливневой дождь, в посл. час гроза 10/5 450 м
[Cb cap As op]
+24.6 +24.6 100 +34 +34 очень
душно
1008.4 1005.7
00 5.12 ЮВ 1 30 км {гроза, дождь} 9/4 420 м
[Cu med, cong Ac trans Ci fib]
+26.6 +25.3 93 +39 +40 очень
душно
1009.9 1007.2 +24.2 27
03 5.12 В 2 30 км 9/5 420 м
[Cu med, cong Ac lent Ci fib]
+30.4 +26.0 77 +45 +50 опасность
перегрева
1009.3 1006.6
06 5.12 СЗ 4 30 км 9/5 480 м
[Cu hum Ac trans Ci fib]
+30.8 +27.0 80 +48 +52 опасность
перегрева
1006.5 1003.8
09 5.12 СЗ 3 30 км 9/4 450 м
[Cb cap Ac trans Ci ing]
+31.1 +26.2 75 +47 +48 опасность
перегрева
1004.8 1002.1
12 5.12 штиль 0 18 км зарница 9/4 450 м
[Cb cap Ac trans Ci sp]
+27.1 +25.8 93 +40 +40 очень
душно
1007.1 1004.4 +32.6
15 5.12 ЮВ 3 18 км 9/4 480 м
[Sc Ac trans Ci fib]
+25.4 +25.3 99 +37 +37 очень
душно
1008.4 1005.7
18 5.12 ЮВ 4 10 км гроза, ливневой дождь 10/5 450 м
[Cb cap As op]
+23.0 +22.6 98 +32 +32 очень
душно
1007.5 1004.8 4
21 5.12 ЮВ 2 15 км гроза, ливневой дождь 10/6 150 м
[Cb cap As op]
+23.2 +22.8 98 +32 +32 очень
душно
1006.5 1003.8
00 6.12 ЮВ 2 30 км {гроза, дождь} 9/3 450 м
[Cb cap Ac trans Ci fib]
+25.4 +24.0 92 +35 +36 очень
душно
1008.4 1005.7 +22.9 4
03 6.12 Ю 1 30 км 9/3 480 м
[Cu med, cong Ac lent Ci fib]
+30.5 +26.1 77 +46 +53 опасность
перегрева
1007.8 1005.1
06 6.12 СЗ 4 30 км 9/4 480 м
[Cu med, cong Ac lent Ci fib]
+31.4 +26.1 74 +47 +51 опасность
перегрева
1005.5 1002.8
09 6.12 СЗ 3 18 км в посл. час гроза 9/4 450 м
[Cb cap Ac trans Ci fib]
+29.6 +26.9 85 +46 +47 опасность
перегрева
1004.3 1001.6
12 6.12 С 2 18 км зарница {гроза} 9/6 420 м
[Cb cap Ac As]
+27.2 +25.3 89 +39 +39 очень
душно
1006.8 1004.1 +31.8
15 6.12 С 3 500 м гроза, ливневой дождь 10/6 420 м
[Cb cap As op]
+24.1 +24.1 100 +33 +33 очень
душно
1009.3 1006.6
18 6.12 ЮВ 1 10 км слабый ливневой дождь, в посл. час гроза 10/4 420 м
[Cb cap As op]
+24.1 +24.0 99 +33 +33 очень
душно
1007.8 1005.1 25
21 6.12 штиль 0 18 км {дождь} 9/4 420 м
[Sc Ac As]
+24.0 +23.7 98 +33 +33 очень
душно
1007.1 1004.4
00 7.12 ЮВ 2 30 км 9/5 60 м
[Cb cap Ac lent Ci fib]
+24.7 +24.4 98 +34 +35 очень
душно
1009.0 1006.3 +23.8 25
03 7.12 ЮВ 2 30 км 9/3 420 м
[Cu med, cong Ac trans Ci fib]
+27.9 +25.2 85 +40 +47 очень
душно
1009.5 1006.8
06 7.12 СЗ 2 30 км 9/4 450 м
[Cb cap Ac lent Ci fib]
+31.3 +25.3 71 +46 +51 опасность
перегрева
1006.7 1004.0
09 7.12 З 4 18 км осадки на расстоянии 9/5 450 м
[Cb cap Ac cuf Ci ing]
+29.5 +25.7 80 +44 +44 опасность
перегрева
1005.9 1003.2
12 7.12 штиль 0 18 км зарница 9/5 420 м
[Cb cap Ac trans Ci fib]
+26.1 +25.1 94 +37 +37 очень
душно
1007.8 1005.1 +32.1
15 7.12 С 6 200 м гроза, ливневой дождь 10/6 420 м
[Cb cap As op]
+23.8 +23.8 100 +32 +32 очень
душно
1010.0 1007.3
18 7.12 Ю 2 8000 м слабый дождь {гроза} 10/5 150 м
[Sc As op]
+23.8 +23.8 100 +32 +32 очень
душно
1009.5 1006.8 148
21 7.12 Ю 1 18 км {дождь} 9/5 90 м
[Sc Ac As]
+23.8 +23.8 100 +32 +32 очень
душно
1009.1 1006.4
00 8.12 В 2 25 км 9/4 60 м
[Sc As op]
+24.6 +24.2 98 +34 +35 очень
душно
1010.1 1007.4 +23.6 148
03 8.12 В 2 30 км 9/5 480 м
[Cu hum Ac trans Ci fib]
+29.2 +25.1 79 +42 +47 опасность
перегрева
1010.4 1007.7
06 8.12 З 3 30 км 9/5 450 м
[Cb cap Ac trans Ci sp]
+30.4 +25.8 76 +45 +49 опасность
перегрева
1008.2 1005.5
09 8.12 СЗ 3 30 км 9/5 450 м
[Cb cap Ac trans Ci fib]
+29.4 +25.2 78 +43 +43 опасность
перегрева
1007.2 1004.5
12 8.12 ЮЗ 1 10 км слабый дождь 10/5 450 м
[Cb cap As op]
+26.6 +25.8 95 +39 +39 очень
душно
1009.5 1006.8 +31.2 0.4
15 8.12 ЮВ 3 18 км {дождь} 9/3 480 м
[Sc Ac As]
+25.6 +25.2 98 +37 +37 очень
душно
1010.5 1007.8
18 8.12 ЮВ 3 18 км 9/3 150 м
[Sc Ac As]
+24.8 +24.5 98 +35 +35 очень
душно
1009.6 1006.9 0.0
21 8.12 ЮВ 3 18 км 9/3 150 м
[St Ac trans Ci fib]
+24.3 +23.9 98 +33 +33 очень
душно
1009.2 1006.5
00 9.12 ЮВ 3 30 км 8/1 420 м
[Cu hum Ac lent Ci fib]
+25.9 +24.2 90 +36 +37 очень
душно
1010.1 1007.4 +24.1 0.4
03 9.12 ЮВ 3 30 км 9/4 420 м
[Cu med, cong Ac lent Ci fib]
+30.7 +25.2 73 +45 +49 опасность
перегрева
1009.6 1006.9
06 9.12 СЗ 2 30 км 9/5 540 м
[Cu hum Ac trans Ci fib]
+32.0 +26.9 74 +49 +54 опасность
перегрева
1007.1 1004.4
09 9.12 СЗ 4 30 км 9/3 480 м
[Cu med, cong Ac lent Ci fib]
+30.4 +25.6 76 +45 +46 опасность
перегрева
1006.0 1003.3
12 9.12 С 1 18 км зарница 9/3 450 м
[Cb cap Ac lent Ci fib]
+27.2 +25.5 90 +40 +40 очень
душно
1008.5 1005.8 +32.4
15 9.12 штиль 0 18 км 9/3 480 м
[Sc Ac trans Ci fib]
+26.6 +25.5 94 +39 +39 очень
душно
1009.4 1006.7
18 9.12 ЮЗ 2 18 км 9/4 150 м
[Sc Ac trans Ci fib]
+25.6 +24.8 95 +36 +36 очень
душно
1007.6 1004.9
21 9.12 ЮВ 2 1800 м гроза, ливневой дождь 10/8 90 м
[Cb cap As op]
+23.7 +23.7 100 +32 +32 очень
душно
1009.0 1006.3
00 10.12 СЗ 2 8000 м гроза, ливневой дождь 10/6 150 м
[Cb cap As op]
+24.0 +24.0 100 +33 +33 очень
душно
1010.7 1008.0 +23.6 66
03 10.12 СЗ 2 25 км {гроза} 9/6 150 м
[Sc Ac As]
+27.7 +25.5 88 +41 +44 опасность
перегрева
1010.5 1007.8
06 10.12 СЗ 3 30 км 9/4 480 м
[Cu med, cong Ac lent Ci fib]
+30.4 +25.3 74 +44 +49 опасность
перегрева
1007.7 1005.0 0.8
09 10.12 СЗ 3 18 км осадки на расстоянии 9/4 450 м
[Cb cap Ac trans Ci fib]
+29.7 +25.6 79 +44 +45 опасность
перегрева
1007.3 1004.6
12 10.12 В 1 18 км зарница 9/4 450 м
[Cb cap Ac trans Ci fib]
+26.2 +25.2 94 +38 +38 очень
душно
1008.7 1006.0 +30.8
15 10.12 штиль 0 18 км 9/3 480 м
[Sc Ac As]
+25.0 +24.9 99 +35 +35 очень
душно
1009.1 1006.4
18 10.12 ЮВ 2 18 км 9/4 480 м
[Sc Ac trans Ci fib]
+24.3 +24.2 99 +33 +33 очень
душно
1008.1 1005.4
21 10.12 В 2 18 км 9/3 480 м
[Sc Ac trans Ci fib]
+24.2 +23.8 98 +33 +33 очень
душно
1008.6 1005.9
00 11.12 В 2 30 км 9/4 480 м
[Sc Ac trans Ci fib]
+25.8 +24.6 93 +36 +37 очень
душно
1009.7 1007.0 +23.9 0.8
03 11.12 ЮВ 1 30 км 9/5 480 м
[Cu hum Ac trans Ci fib]
+30.5 +24.5 70 +43 +49 опасность
перегрева
1010.3 1007.6
06 11.12 СЗ 3 30 км 9/5 450 м
[Cb cap Ac lent Ci sp]
+32.3 +25.9 69 +48 +51 опасность
перегрева
1007.2 1004.5
09 11.12 С 3 18 км гроза без осадков 9/5 450 м
[Cb cap Ac trans Ci sp]
+29.4 +25.7 81 +44 +44 опасность
перегрева
1007.4 1004.7
12 11.12 ЮВ 2 18 км зарница {гроза} 9/5 420 м
[Cb cap Ac trans Ci fib]
+26.1 +25.5 97 +38 +38 очень
душно
1009.4 1006.7 +32.5
15 11.12 ЮВ 2 10 км слабый дождь 10/5 420 м
[Sc As op]
+25.3 +25.2 99 +36 +36 очень
душно
1010.7 1008.0

 

Местоположение метеостанции Bintulu (Малайзия): широта 3.20 долгота 113.03 высота над уровнем моря 5 м.

В архиве по умолчанию представлена погода в Bintulu за последнюю неделю. Архивные данные за месяц целиком и за предыдущие месяцы, начиная с января 2011 года, Вы можете получить, выбрав интересующий диапазон дат из раскрывающегося списка и нажав кнопку "Ввод!".


*Определитесь, кто Вы:
робот инопланетянин человек

Внимание! Время в таблицах - всемирное. Для получения местного времени необходимо прибавить поправку, которая в Bintulu равна 8 ч.

Смотрите также архив погоды в соседних городах и на ближайших метеорологических станциях:

Погода в Miri (Малайзия) (164 км)
Погода в Sibu (Малайзия) (165 км)
Погода в Putussibau (Индонезия) (263 км)
Погода в Brunei Airport (Бруней) (285 км)
Погода в Longbawan (Индонезия) (300 км)
Погода в Labuan (Малайзия) (339 км)
Погода в Kuching (Малайзия) (356 км)
Погода в Sintang (Индонезия) (381 км)
Погода в Nangapinoh (Индонезия) (419 км)
Погода в Paloh (Индонезия) (444 км)

Пояснения к столбцам:

Ветер - указаны скорость ветра в м/с - средняя за 10 мин, порывы в срок и между сроками (в фигурных скобках) и направление, откуда дует ветер: С - северный, СВ - северо-восточный, В - восточный, ЮВ - юго-восточный, Ю - южный, ЮЗ - юго-западный, З - западный, СЗ - северо-западный.
Видимость - горизонтальная дальность видимости в метрах или километрах. При видимости от 1 до 10 км при отсутствии осадков обычно наблюдается дымка, при ухудшении видимости до 1 км и менее - туман. В сухую погоду видимость может ухудшаться дымом, пылью или мглою.
Явления - указаны атмосферные явления, наблюдавшиеся в срок или в последний час перед сроком; фигурными скобками обозначены явления, наблюдавшиеся между сроками (за 1-3 часа до срока); квадратными скобками обозначены град или гололедные отложения с указанием их диаметра в мм.
Облачность - указаны через наклонную черту общая и нижняя облачность в баллах и высота нижней границы облаков в метрах; квадратными скобками обозначены формы облаков: Ci - перистые, Cs - перисто-слоистые, Cc - перисто-кучевые, Ac - высококучевые, As - высокослоистые, Sc - слоисто-кучевые, Ns - слоисто-дождевые, Cu - кучевые, Cb - кучево-дождевые. Подробнее классификацию облаков см. в Атласе облаков (PDF).
T - Температура воздуха - температура, измеренная на высоте 2 м над землей.
Td - Температура точки росы - температура, при понижении до которой содержащийся в воздухе водяной пар достигнет насыщения.
f - Относительная влажность воздуха - влажноcть воздуха, измеренная на высоте 2 м над землей.
Te - Эффективная температура - температура, которую ощущает одетый по сезону человек в тени. Характеристика душности погоды. При расчете учитывается влияние влажности воздуха и скорости ветра на теплоощущения человека.
Tes - Эффективная температура на солнце - температура, которую ощущает человек, с поправкой на солнечный нагрев. Характеристика знойности погоды. Зависит от высоты солнца над горизонтом, облачности и скорости ветра. Ночью, в пасмурную погоду, а также при ветре 12 м/с и более поправка равна нулю.
P - Атмосферное давление - приведенное к уровню моря атмосферное давление.
Po - Атмосферное давление - измеренное на уровне метеостанции атмосферное давление.
Tmin - Минимальная температура - минимум температуры воздуха на высоте 2 м над землей.
Tmax - Максимальная температура - максимум температуры воздуха на высоте 2 м над землей.
R - Количество осадков - Количество выпавших осадков за период времени, мм. При наведении курсора мыши на число - период времени, за который выпало указанное количество осадков.
R24 - Количество осадков - Количество выпавших осадков за 24 часа, мм.
S - Снежный покров - Высота снежного покрова, см. При наведении курсора мыши на число - состояние снежного покрова и степень покрытия местности в баллах.